Flagg, IL

9:05 AM CST on February 24, 2017 (GMT -0600)
MUP086 | | Change Station

Elev 780 ft 41.90 °N, 89.14 °W | Updated 2 minutes ago

Overcast
Overcast
36.0 °F
Feels Like 36 °F
N
-
Wind Variable Wind from North

Today
High -- | Low -- °F
--% Chance of Precip.
Yesterday
High -- | Low -- °F
Precip. -- in
Pressure 29.46 in
Visibility 4.0 miles
Clouds Overcast 400 ft
Windchill 36 °F
Dew Point Not available.
Humidity Not available.
Rainfall in
Snow Depth Not available.
6:38 AM 5:41 PM
Waning Crescent, 5% visible
METAR KRPJ 241455Z AUTO 04011KT 4SM BR OVC004 03/03 A2946 RMK AO2 T00320030
Pressure 29.46 in
Visibility 4.0 miles
Clouds Overcast 400 ft
Windchill 36 °F
Dew Point Not available.
Humidity Not available.
Rainfall in
Snow Depth Not available.
6:38 AM 5:41 PM
Waning Crescent, 5% visible
METAR KRPJ 241455Z AUTO 04011KT 4SM BR OVC004 03/03 A2946 RMK AO2 T00320030

Get Your Daily Forecast Email!

Thanks for signing up!

Be on the lookout for a verification email in your inbox.

You'll start receiving the daily forecast at 8 AM.

×

10-Day Weather Forecast

Almanac

Astronomy

Feb. 24, 2017 Rise Set
Actual Time
Civil Twilight
Nautical Twilight
Astronomical Twilight
Moon
Length of Visible Light
Length of Day
Tomorrow will be .
, % of the Moon is Illuminated

Today's Extremes

State Highs State Lows

Community

WunderPhotos

Upload Photos

1,962,540 photos uploaded!

WunderBlog® & News

Nearby

Air Quality

  Air Quality AQ Index Pollutant
Not available.

Snow Depth

Station Depth Elevation

Earthquake Activity

City Distance Mag. Time & Date
Minimum magnitude displayed is 2.5.

Coastal Water Temperatures

Place Temperature

Stations

Nearby Weather Stations

Station Location Temp. Windchill Dew Point Humidity Wind Precip. Elev Updated Type
                   

Watches & Warnings

There are currently no watches in effect.